TimeEST,TemperatureF,Dew PointF,Humidity,Sea Level PressureIn,VisibilityMPH,Wind Direction,Wind SpeedMPH,Gust SpeedMPH,PrecipitationIn,Events,Conditions,WindDirDegrees,DateUTC
12:08 AM,46.4,44.6,93,30.05,3.0,South,4.6,-,N/A,,Overcast,170,2013-01-30 05:08:00
12:49 AM,46.4,44.6,93,30.02,2.5,SSE,4.6,-,N/A,,Overcast,160,2013-01-30 05:49:00
1:24 AM,44.6,42.8,93,30.01,0.8,Calm,Calm,-,N/A,,Mist,0,2013-01-30 06:24:00
1:31 AM,44.6,42.8,93,30.00,0.5,Calm,Calm,-,N/A,Fog,Fog,0,2013-01-30 06:31:00
1:54 AM,41.0,41.0,100,30.00,0.2,Calm,Calm,-,N/A,Fog,Fog,0,2013-01-30 06:54:00
2:22 AM,42.8,42.8,100,29.98,0.5,South,3.5,-,N/A,Fog,Fog,180,2013-01-30 07:22:00
2:41 AM,44.6,42.8,93,29.97,2.0,Calm,Calm,-,N/A,,Partly Cloudy,0,2013-01-30 07:41:00
2:54 AM,44.1,43.0,96,29.97,1.8,Calm,Calm,-,N/A,,Clear,0,2013-01-30 07:54:00
3:54 AM,44.1,43.0,96,29.94,1.0,Calm,Calm,-,N/A,,Clear,0,2013-01-30 08:54:00
4:03 AM,44.6,42.8,93,29.93,1.8,SSE,4.6,-,N/A,,Clear,160,2013-01-30 09:03:00
4:10 AM,44.6,44.6,100,29.92,3.0,SSE,4.6,-,N/A,,Clear,160,2013-01-30 09:10:00
4:54 AM,46.0,45.0,96,29.91,3.0,South,3.5,-,N/A,,Clear,180,2013-01-30 09:54:00
5:54 AM,48.0,46.9,96,29.90,4.0,South,5.8,-,N/A,,Mostly Cloudy,170,2013-01-30 10:54:00
6:54 AM,48.9,46.9,93,29.88,4.0,SSE,5.8,-,N/A,,Clear,160,2013-01-30 11:54:00
7:22 AM,48.2,46.4,93,29.88,2.5,South,4.6,-,N/A,,Clear,170,2013-01-30 12:22:00
7:54 AM,50.0,48.0,93,29.87,3.0,South,5.8,-,N/A,,Mostly Cloudy,170,2013-01-30 12:54:00
8:54 AM,55.0,52.0,89,29.84,6.0,Variable,5.8,-,N/A,,Scattered Clouds,0,2013-01-30 13:54:00
9:54 AM,61.0,55.0,81,29.82,10.0,SSW,8.1,17.3,N/A,,Mostly Cloudy,200,2013-01-30 14:54:00
10:15 AM,62.6,55.4,77,29.81,10.0,South,10.4,19.6,N/A,,Mostly Cloudy,190,2013-01-30 15:15:00
10:54 AM,62.1,55.9,80,29.81,10.0,SSW,9.2,20.7,N/A,,Overcast,210,2013-01-30 15:54:00
11:54 AM,63.0,57.0,81,29.75,10.0,SSW,15.0,25.3,N/A,,Overcast,210,2013-01-30 16:54:00
12:54 PM,66.0,57.9,75,29.70,10.0,SSW,10.4,27.6,N/A,,Mostly Cloudy,200,2013-01-30 17:54:00
1:49 PM,66.2,57.2,73,29.66,10.0,SSW,11.5,26.5,N/A,,Scattered Clouds,200,2013-01-30 18:49:00
1:54 PM,66.9,57.9,73,29.66,10.0,SSW,10.4,26.5,N/A,,Scattered Clouds,210,2013-01-30 18:54:00
2:54 PM,66.0,57.0,73,29.64,10.0,SSW,9.2,19.6,N/A,,Overcast,200,2013-01-30 19:54:00
3:54 PM,66.9,55.9,68,29.62,10.0,SSW,10.4,23.0,N/A,,Overcast,200,2013-01-30 20:54:00
4:54 PM,64.9,55.0,70,29.60,10.0,SSW,10.4,21.9,N/A,,Mostly Cloudy,200,2013-01-30 21:54:00
5:54 PM,64.9,55.9,73,29.59,10.0,South,11.5,23.0,N/A,,Mostly Cloudy,190,2013-01-30 22:54:00
6:20 PM,64.4,55.4,73,29.61,10.0,SSW,9.2,21.9,0.00,,Overcast,210,2013-01-30 23:20:00
6:54 PM,63.0,55.9,78,29.60,10.0,SW,6.9,-,0.00,Rain,Light Rain,220,2013-01-30 23:54:00
7:54 PM,62.1,55.9,80,29.55,10.0,South,8.1,16.1,0.00,,Overcast,190,2013-01-31 00:54:00
8:54 PM,62.1,55.9,80,29.50,10.0,South,6.9,18.4,N/A,,Scattered Clouds,180,2013-01-31 01:54:00
9:54 PM,63.0,55.9,78,29.44,10.0,South,13.8,26.5,N/A,,Mostly Cloudy,180,2013-01-31 02:54:00
10:07 PM,62.6,55.4,77,29.45,10.0,South,12.7,29.9,N/A,,Mostly Cloudy,190,2013-01-31 03:07:00
10:54 PM,63.0,55.9,78,29.42,10.0,South,16.1,26.5,N/A,,Overcast,190,2013-01-31 03:54:00
11:54 PM,61.0,57.9,90,29.36,8.0,South,10.4,29.9,0.02,Rain,Light Rain,190,2013-01-31 04:54:00